Location: Stara Lesna
(49.1528°N, 20.2911°E)
Time: 18:21:30
(UTC+02:00)

Cosmos 1833 Rocket - Pass Details

Date: 13 July 2020
Orbit: 832 x 840 km, 71.0° (Epoch: 11 August)

Event Time Altitude Azimuth Distance (km) Brightness Sun altitude
Exits shadow 03:01:13 17° 199° (SSW) 1,984 4.0 -12.8°
Maximum altitude 03:05:35 77° 115° (ESE) 861 2.8 -12.4°
Drops below altitude 10° 03:11:12 10° 31° (NNE) 2,455 6.7 -11.9°
Sets 03:13:39 0° 30° (NNE) 3,394 8.0 -11.7°
